Wind_Speed
90 92 95 94 97 96 93 92 88 82 68 50 32 27 29 34 33 30 36 40 36 36 31 27 34 27 35 37 39 46 52 58 61 61 61 62 62 63 62 60 58 57 57 57 57 54 56 56 55 55 50 47 44 42
95 95 98 97 98 97 96 91 83 75 62 42 30 25 30 36 35 34 34 40 41 38 37 34 30 28 30 37 36 37 41 43 47 55 59 62 64 63 64 65 64 64 61 59 60 56 55 56 57 57 53 42 43 43
99 100 101 99 100 95 90 86 77 70 57 36 27 23 31 37 35 32 32 38 44 45 41 35 37 36 37 38 38 38 29 35 34 35 37 46 50 51 51 52 53 52 53 56 55 51 53 55 57 59 56 49 43 41
102 100 99 96 93 88 82 78 73 60 48 33 25 23 31 38 35 32 29 35 41 44 43 45 42 36 36 39 39 37 41 44 42 40 39 41 35 39 41 42 41 38 39 41 48 54 56 57 58 60 60 52 42 41
97 94 94 88 86 81 76 71 64 53 40 31 25 25 32 40 37 32 28 33 37 40 42 42 48 49 47 44 44 42 42 43 46 50 47 46 44 42 39 40 43 38 36 36 34 36 38 40 38 39 37 39 38 39
93 89 86 83 78 73 69 63 54 47 36 29 26 28 37 44 41 35 30 33 36 40 40 43 47 47 49 51 52 52 50 51 49 50 53 51 51 49 44 42 43 47 42 38 34 36 35 37 37 36 39 42 41 39
87 83 80 75 70 66 61 54 48 41 36 31 27 30 41 49 47 41 34 35 36 37 36 38 42 46 47 49 50 53 55 57 55 54 50 46 47 51 49 51 48 45 40 40 37 38 40 37 38 37 40 45 45 45
81 77 73 68 63 59 53 48 43 39 37 34 30 34 44 53 52 47 44 37 33 31 30 31 36 38 39 42 45 51 55 59 62 61 59 58 59 55 54 56 49 45 46 46 42 42 43 43 43 46 47 49 50 52
71 69 66 61 56 53 49 44 40 38 38 36 33 38 47 54 58 53 46 42 37 34 31 31 30 30 33 33 37 39 39 42 46 45 50 60 68 61 63 63 58 55 51 45 43 44 41 44 51 51 52 53 52 55
65 62 58 55 53 49 45 40 38 39 38 37 37 41 50 57 58 59 53 44 41 32 31 29 24 27 30 30 31 31 34 35 36 36 38 41 53 65 62 55 58 59 61 54 52 48 48 50 49 54 56 55 55 57
58 56 54 53 51 46 41 38 38 37 36 38 41 43 50 56 59 60 56 49 38 32 34 31 26 29 29 30 29 26 27 33 29 28 31 34 40 52 63 61 56 56 57 59 59 55 54 58 59 59 58 60 62 61
54 54 52 49 47 46 40 36 36 36 36 40 44 47 51 55 54 60 57 49 45 39 36 35 34 32 31 32 29 29 33 33 30 26 28 28 34 43 53 62 62 55 50 52 57 62 64 66 65 64 67 66 65 66
52 51 48 45 44 45 36 34 36 35 38 41 45 49 51 53 52 51 44 40 44 45 42 36 35 34 34 31 30 32 32 32 27 23 25 26 28 34 45 57 64 64 60 55 54 53 55 58 63 68 71 71 70 71
45 46 46 42 41 43 34 36 36 36 38 42 47 49 48 50 48 47 48 49 49 46 41 35 33 37 36 33 34 33 30 30 25 21 21 22 24 28 34 43 52 60 65 66 65 63 60 58 57 57 62 68 72 74
40 41 40 39 41 38 34 38 37 38 40 43 45 46 45 46 50 51 50 44 40 38 37 33 38 41 38 37 35 32 31 29 22 19 19 21 22 26 31 35 38 44 52 58 62 66 68 65 62 59 57 60 65 69
32 31 33 36 34 35 41 39 39 40 41 44 44 45 45 45 49 51 46 40 36 37 36 38 42 41 40 34 34 30 30 25 20 18 19 19 21 24 28 32 32 37 43 46 48 53 56 60 62 65 66 66 67 68
27 29 31 34 37 39 39 40 40 39 40 42 43 46 46 43 43 43 42 40 39 38 36 40 42 38 33 33 29 26 25 22 19 15 15 16 18 20 24 26 28 35 33 35 36 38 40 42 44 46 50 54 60 66
22 25 27 30 34 37 39 39 38 39 41 41 44 47 46 39 40 37 34 36 38 38 39 40 37 33 31 26 24 22 21 19 16 15 15 15 17 18 20 24 26 30 32 33 34 34 35 38 37 40 44 46 48 52
23 25 29 32 35 38 39 39 40 40 41 45 47 47 46 41 40 37 35 33 34 37 37 34 28 26 24 26 21 20 17 15 14 14 14 17 21 23 23 24 27 29 30 29 31 32 32 31 30 31 27 29 37 48
25 27 29 31 34 37 40 43 44 46 49 49 47 45 43 40 39 37 33 34 34 33 28 25 24 23 24 22 17 14 14 14 13 15 17 20 22 20 17 18 23 24 24 28 30 33 37 36 33 29 31 32 35 43
27 31 35 37 39 42 44 46 48 51 49 47 42 38 36 32 33 32 27 25 24 25 19 19 22 22 22 19 14 12 12 12 13 14 18 19 20 17 16 13 13 15 20 25 28 30 29 28 25 27 28 25 26 25
34 35 36 39 40 42 42 43 43 47 44 41 40 39 32 29 29 29 29 27 26 19 19 20 20 21 18 14 14 14 13 12 14 17 16 17 19 16 17 21 22 21 22 23 23 20 17 15 15 17 18 17 16 15
38 37 38 39 42 43 43 41 42 42 38 34 32 30 30 29 27 26 25 24 19 15 17 19 20 17 16 17 17 17 18 18 17 17 17 20 20 19 21 20 18 17 15 14 15 15 13 11 8 6 5 6 7 6
41 41 42 41 40 42 42 39 36 34 33 32 31 31 30 27 25 22 20 19 17 16 20 20 21 19 19 22 23 23 22 19 17 17 16 18 21 22 20 14 11 11 10 10 10 8 7 6 5 4 3 2 2 2
38 38 36 36 34 32 30 30 30 28 27 29 29 27 25 23 20 19 20 19 17 18 18 17 16 18 21 20 19 20 18 17 16 15 13 13 16 17 11 8 10 11 13 14 13 12 11 9 8 6 4 4 5 7
33 32 31 31 30 29 30 29 28 26 25 25 25 23 21 20 22 22 19 17 13 10 10 12 15 16 16 18 19 18 15 14 14 13 12 11 11 10 13 15 17 17 15 14 12 11 9 7 5 5 6 8 10 12
33 29 29 28 26 25 26 27 27 26 25 23 22 21 21 21 13 6 6 6 7 8 9 10 11 15 18 13 8 6 5 6 7 8 8 9 10 13 15 18 18 17 16 14 12 9 7 9 10 11 12 14 16 17
32 29 28 27 25 24 23 19 18 18 19 21 18 14 10 9 10 9 8 7 5 6 7 9 11 7 5 7 8 9 9 9 9 9 11 12 12 13 14 16 15 14 12 12 13 14 15 16 17 19 21 22 23 24
33 31 26 22 20 19 19 17 13 9 4 3 4 3 3 3 4 4 5 5 5 5 5 6 8 9 10 9 8 8 8 9 10 10 8 7 6 8 11 15 15 15 16 17 18 20 22 24 26 27 28 29 32 34
26 25 24 21 18 15 14 13 13 12 12 12 11 9 9 8 7 8 8 11 13 14 12 12 12 12 10 9 8 9 8 7 5 4 5 6 7 9 11 14 17 19 21 23 25 28 29 30 32 34 36 39 41 42
34 32 30 29 27 25 24 23 22 21 20 19 18 17 17 16 16 16 15 14 13 10 10 9 8 6 3 2 3 6 7 7 7 8 9 10 12 14 15 16 18 22 26 29 32 34 36 38 40 43 44 47 49 51
36 35 35 33 32 31 30 28 26 24 22 21 21 20 19 18 17 16 15 14 13 11 10 8 5 2 2 3 4 5 7 8 10 12 14 17 19 21 23 25 27 29 31 35 38 41 44 46 48 51 53 55 57 57
39 38 37 36 35 33 32 30 28 26 25 23 21 19 18 16 14 13 11 10 9 7 5 2 1 2 3 5 8 10 12 14 14 14 14 14 16 18 21 23 24 25 27 29 32 34 36 37 39 41 43 44 46 47
Wind_Direction
305 307 308 310 311 314 317 319 323 325 326 319 306 282 254 234 231 229 225 218 216 216 219 218 214 212 222 221 224 230 234 234 235 233 236 236 237 239 241 245 246 245 244 246 246 245 245 246 246 248 245 243 249 249
303 304 305 307 309 312 312 316 321 321 323 312 300 276 245 230 230 230 227 220 215 215 220 217 222 225 227 216 221 224 223 228 234 236 237 240 240 243 247 250 250 249 248 248 247 245 242 239 241 243 245 248 251 244
301 303 303 306 306 309 311 314 318 319 318 306 294 268 239 225 226 231 227 219 218 220 218 219 221 226 218 218 219 215 222 218 226 232 238 236 239 240 245 247 249 248 245 242 242 241 239 238 238 243 245 251 249 237
299 300 301 303 304 307 310 312 312 314 312 301 287 262 235 218 218 230 220 216 216 218 220 223 226 227 227 226 231 234 230 225 223 228 238 234 234 238 239 240 240 244 245 245 244 243 243 243 242 241 243 251 234 230
298 299 299 301 302 305 306 308 306 307 304 296 281 256 229 212 211 223 215 214 214 217 220 223 227 231 231 234 235 238 236 238 239 234 230 236 236 233 239 239 238 235 238 236 236 236 237 237 235 236 230 224 224 223
296 297 299 299 300 300 300 300 300 300 295 287 270 245 221 209 207 215 210 213 212 212 213 221 226 229 232 235 237 239 240 240 239 237 236 239 239 237 237 242 242 234 231 234 237 231 229 232 226 219 217 219 219 222
294 294 295 295 294 294 294 293 292 291 286 279 261 237 216 207 208 212 210 210 212 215 215 220 226 228 232 234 236 238 240 243 246 245 240 238 234 237 238 240 239 241 237 231 237 235 232 229 225 219 217 218 219 217
290 290 290 289 288 287 286 285 284 282 277 270 250 231 214 206 207 211 210 211 214 218 222 226 230 233 236 242 248 249 251 250 249 248 247 244 239 239 239 238 241 241 242 240 235 229 231 231 227 224 224 219 217 220
286 285 284 283 281 279 279 277 275 273 269 258 240 223 213 206 207 208 213 212 219 227 230 229 232 239 243 247 247 253 257 259 257 250 248 242 239 239 240 244 240 240 241 238 237 230 228 231 231 228 228 227 223 223
282 279 278 277 275 273 271 270 269 266 257 244 229 217 213 208 209 210 211 217 219 219 222 229 234 239 244 254 262 270 265 264 268 259 252 245 235 232 235 236 238 239 238 239 238 237 234 233 234 232 233 231 229 230
274 272 271 270 269 267 266 266 262 254 242 229 220 212 209 208 207 208 209 214 212 221 224 228 235 244 252 261 273 278 277 281 274 255 246 247 237 229 229 232 237 239 238 240 241 241 241 240 239 237 233 231 233 234
266 265 264 263 265 265 262 256 250 240 227 218 212 211 208 205 206 206 207 215 210 219 225 232 241 248 257 267 278 286 291 280 273 256 241 239 241 232 228 229 234 236 238 238 241 244 245 245 245 243 242 239 234 236
261 261 261 258 258 257 248 240 233 224 218 211 208 209 207 206 201 200 196 200 210 217 226 239 240 248 258 274 280 290 288 281 277 264 243 238 237 237 233 231 233 237 239 239 239 240 241 242 244 245 245 244 242 243
253 250 249 246 241 240 232 223 219 214 211 207 206 208 205 203 195 195 197 206 213 221 232 229 240 248 261 274 278 287 283 282 273 260 239 236 236 235 237 237 237 239 241 242 243 245 246 246 247 249 248 246 248 248
246 242 238 230 226 226 210 210 209 207 204 201 204 204 199 193 192 194 200 208 213 222 221 234 243 249 263 269 276 286 279 281 275 254 239 234 237 239 239 240 240 241 242 244 246 247 248 250 251 252 251 250 249 249
232 228 222 218 214 202 203 204 201 200 197 195 197 197 195 191 189 195 200 208 216 219 226 234 243 251 261 272 283 283 279 283 275 253 241 239 237 239 241 243 243 246 246 247 249 251 252 251 251 251 252 252 253 254
214 210 205 202 200 202 200 196 196 191 189 188 188 190 188 190 193 198 204 210 214 221 233 239 247 256 269 278 280 273 276 276 263 257 255 253 250 247 250 248 249 249 247 248 249 249 250 251 251 251 251 250 252 253
201 195 193 187 188 189 189 187 184 179 180 180 179 181 185 187 186 190 204 210 219 230 236 241 252 261 273 271 268 274 272 266 266 264 258 255 255 250 249 255 250 257 260 259 258 254 253 252 249 247 248 248 250 253
179 177 177 175 176 175 175 173 169 170 172 172 175 181 187 191 193 204 216 218 222 225 233 246 261 266 261 260 266 262 257 256 257 262 260 259 261 258 259 262 261 260 263 261 261 263 263 258 256 254 256 254 253 249
166 164 164 163 163 163 164 162 161 164 168 173 177 183 189 194 200 204 212 223 229 236 245 251 260 256 255 257 253 246 252 252 251 259 279 281 269 263 254 260 257 256 263 266 264 262 264 261 255 255 260 270 269 262
148 150 150 151 154 156 160 160 163 167 173 175 175 178 186 197 203 206 212 225 240 252 248 244 240 246 249 251 245 247 252 262 264 279 292 279 263 250 249 265 267 265 264 266 271 271 268 270 271 264 268 262 267 268
139 138 142 147 152 154 156 160 163 167 171 175 182 188 194 196 203 213 222 239 245 249 237 229 240 246 252 258 262 267 272 276 284 283 271 255 247 249 245 249 255 262 266 269 277 274 269 262 259 259 261 262 264 264
134 135 138 143 148 153 155 159 163 169 173 177 183 187 194 204 218 228 230 237 244 229 222 241 245 248 253 264 280 292 295 294 284 264 248 243 240 241 254 265 273 274 266 261 258 258 257 252 246 241 241 238 235 240
136 135 137 145 150 155 159 160 161 167 173 181 192 202 208 210 218 226 243 250 246 237 235 243 251 259 271 282 296 299 291 279 265 245 235 237 240 243 246 249 255 249 236 223 210 196 170 153 164 190 189 202 221 252
135 137 140 143 143 147 150 157 165 175 183 186 191 197 209 216 232 247 249 249 246 242 247 258 270 281 290 293 287 278 269 256 246 243 240 235 237 234 226 214 198 185 172 162 158 160 164 167 171 176 205 257 281 293
128 131 134 138 143 151 155 159 164 171 179 190 198 207 222 235 242 245 246 250 259 265 276 280 290 293 301 300 292 285 274 257 242 238 243 234 218 195 183 178 172 168 169 170 175 179 188 200 216 239 264 270 276 283
128 129 134 142 150 157 166 174 183 192 200 209 218 224 229 234 233 259 296 302 297 278 267 278 279 296 292 283 264 237 211 198 197 192 184 179 179 180 181 178 176 178 184 190 195 207 225 247 258 264 269 274 279 281
132 137 144 150 159 166 172 175 183 194 204 213 219 231 248 271 272 271 282 281 276 276 281 288 285 267 205 167 149 137 132 131 137 146 152 157 168 178 186 190 194 198 209 220 233 246 258 263 271 279 285 289 290 289
139 142 143 143 149 157 170 178 183 189 200 245 239 243 240 216 219 239 245 236 235 230 190 164 158 147 135 123 119 123 134 143 148 153 167 184 206 216 215 215 223 233 245 252 259 266 268 269 274 279 282 285 287 287
123 124 126 127 130 136 139 147 151 156 151 146 143 142 145 152 156 150 139 131 127 129 127 129 143 146 145 154 160 165 165 173 187 217 249 264 273 273 268 265 263 262 263 265 266 270 273 273 275 278 281 283 286 287
116 115 115 116 114 113 112 109 105 102 102 102 101 102 105 110 111 113 118 122 124 127 124 117 111 118 135 162 199 214 227 249 275 294 302 299 296 294 288 281 276 275 275 276 275 275 277 279 281 282 283 285 287 289
99 99 98 97 96 95 93 92 92 93 96 98 99 101 102 103 105 106 107 107 106 101 97 94 92 76 32 351 330 300 283 280 282 288 291 291 290 287 286 285 285 282 279 277 277 278 280 281 283 284 286 287 287 286
95 95 96 96 96 95 94 95 96 98 99 100 99 96 92 89 85 83 84 83 85 90 98 115 164 263 270 265 267 271 275 278 285 291 294 295 299 300 301 301 301 303 302 299 295 292 290 288 287 287 288 290 291 292
Height
10608 10602 10594 10588 10580 10575 10572 10567 10562 10553 10543 10534 10530 10527 10526 10530 10534 10539 10544 10552 10559 10565 10570 10574 10579 10585 10592 10600 10606 10612 10618 10624 10632 10638 10642 10647 10653 10657 10663 10669 10676 10681 10686 10692 10699 10704 10709 10711 10710 10711 10720 10727 10732 10735
10588 10584 10575 10570 10563 10558 10552 10548 10544 10537 10531 10524 10519 10518 10519 10522 10527 10532 10536 10544 10552 10558 10563 10570 10577 10582 10586 10592 10598 10604 10609 10613 10619 10623 10628 10633 10639 10645 10650 10655 10660 10665 10671 10676 10680 10688 10693 10697 10699 10700 10709 10717 10722 10723
10568 10562 10554 10549 10543 10539 10533 10529 10526 10521 10517 10513 10509 10508 10510 10514 10519 10524 10529 10536 10543 10550 10557 10565 10571 10573 10579 10585 10590 10596 10602 10606 10610 10615 10618 10622 10628 10634 10638 10643 10646 10650 10655 10660 10667 10673 10680 10685 10688 10692 10699 10707 10713 10716
10546 10539 10533 10528 10521 10519 10515 10512 10508 10506 10502 10499 10498 10499 10502 10506 10513 10517 10523 10528 10535 10542 10550 10558 10562 10568 10574 10579 10584 10589 10594 10598 10602 10605 10610 10613 10619 10624 10628 10632 10635 10640 10644 10650 10656 10662 10669 10673 10678 10681 10689 10697 10702 10706
10521 10518 10511 10508 10502 10499 10496 10494 10490 10490 10490 10487 10486 10488 10493 10499 10506 10512 10517 10522 10528 10535 10542 10549 10555 10560 10565 10571 10575 10580 10584 10588 10593 10596 10600 10606 10610 10614 10620 10624 10628 10631 10637 10642 10647 10651 10655 10658 10662 10667 10677 10685 10690 10697
10498 10494 10491 10486 10482 10479 10477 10476 10475 10474 10476 10478 10477 10479 10484 10490 10498 10505 10512 10517 10523 10528 10534 10541 10546 10552 10556 10560 10564 10569 10573 10577 10580 10585 10590 10596 10601 10606 10610 10613 10615 10620 10628 10634 10640 10643 10646 10649 10652 10658 10664 10671 10679 10687
10473 10471 10468 10466 10462 10459 10458 10458 10458 10459 10461 10464 10466 10468 10474 10482 10490 10497 10506 10510 10516 10521 10528 10534 10539 10542 10546 10549 10553 10556 10559 10563 10568 10574 10580 10584 10591 10595 10598 10599 10605 10614 10620 10627 10631 10634 10638 10640 10645 10651 10655 10660 10668 10672
10445 10444 10444 10443 10441 10439 10439 10440 10442 10444 10447 10450 10453 10457 10463 10472 10480 10489 10497 10504 10510 10515 10521 10528 10531 10534 10538 10541 10542 10544 10548 10552 10555 10560 10565 10571 10576 10579 10584 10590 10597 10604 10609 10613 10617 10621 10626 10630 10633 10640 10643 10647 10654 10658
10419 10417 10418 10420 10419 10419 10420 10423 10426 10428 10431 10434 10440 10445 10452 10461 10470 10480 10488 10496 10503 10510 10515 10519 10523 10527 10529 10531 10532 10534 10537 10538 10539 10542 10544 10549 10556 10563 10570 10576 10584 10591 10595 10602 10606 10610 10614 10618 10620 10624 10629 10637 10644 10647
10393 10393 10394 10395 10397 10399 10402 10405 10409 10411 10415 10419 10426 10433 10441 10450 10460 10470 10480 10490 10498 10503 10507 10512 10518 10520 10521 10524 10525 10527 10526 10528 10528 10528 10529 10531 10536 10545 10554 10562 10569 10575 10582 10590 10594 10598 10603 10605 10607 10613 10618 10625 10630 10635
10368 10369 10371 10373 10375 10379 10384 10387 10390 10394 10399 10404 10411 10420 10429 10438 10449 10461 10473 10483 10492 10498 10501 10506 10511 10512 10514 10516 10517 10518 10518 10517 10517 10518 10519 10521 10525 10531 10540 10548 10555 10561 10569 10577 10580 10586 10591 10591 10594 10598 10604 10609 10615 10619
10344 10347 10350 10354 10357 10360 10367 10371 10374 10379 10385 10392 10400 10408 10418 10429 10440 10454 10467 10478 10486 10491 10495 10499 10502 10505 10507 10508 10509 10510 10508 10506 10507 10509 10511 10514 10516 10521 10528 10535 10542 10549 10556 10562 10564 10569 10575 10577 10581 10584 10587 10592 10598 10602
10324 10327 10331 10336 10339 10341 10351 10356 10360 10368 10375 10382 10390 10399 10408 10420 10435 10451 10463 10473 10479 10482 10486 10492 10495 10497 10499 10501 10502 10502 10499 10497 10499 10501 10503 10506 10509 10514 10518 10523 10528 10534 10541 10547 10550 10552 10558 10560 10562 10568 10572 10576 10582 10586
10301 10305 10309 10317 10322 10326 10337 10342 10350 10358 10366 10373 10382 10392 10403 10417 10433 10446 10454 10461 10470 10476 10482 10486 10489 10490 10492 10494 10495 10494 10492 10489 10489 10492 10495 10499 10502 10505 10507 10511 10516 10522 10526 10530 10533 10537 10541 10545 10549 10551 10556 10560 10563 10569
10282 10287 10293 10302 10308 10316 10326 10333 10342 10350 10357 10367 10378 10389 10402 10414 10427 10439 10450 10459 10467 10473 10477 10481 10482 10484 10486 10487 10488 10486 10483 10482 10483 10486 10488 10491 10494 10496 10498 10501 10505 10509 10510 10513 10516 10520 10525 10531 10535 10537 10539 10540 10543 10547
10270 10277 10283 10291 10300 10309 10315 10325 10334 10343 10353 10364 10377 10388 10401 10413 10424 10435 10446 10455 10461 10466 10470 10474 10475 10478 10478 10480 10480 10477 10475 10475 10476 10479 10481 10483 10486 10488 10490 10491 10495 10497 10497 10500 10503 10505 10508 10512 10517 10521 10523 10525 10526 10529
10262 10267 10275 10282 10290 10298 10308 10318 10329 10340 10352 10365 10376 10387 10400 10411 10423 10433 10442 10449 10455 10461 10465 10467 10469 10470 10473 10474 10472 10470 10469 10469 10470 10472 10473 10476 10478 10480 10481 10484 10485 10484 10488 10490 10491 10493 10495 10497 10500 10502 10504 10506 10509 10510
10258 10264 10271 10278 10287 10296 10306 10318 10329 10342 10354 10365 10376 10388 10400 10411 10421 10431 10438 10444 10450 10454 10458 10462 10464 10466 10466 10465 10463 10463 10463 10463 10465 10466 10467 10469 10470 10472 10473 10474 10476 10476 10477 10479 10480 10482 10483 10483 10485 10485 10487 10490 10492 10490
10257 10263 10270 10278 10287 10297 10309 10321 10334 10347 10359 10368 10378 10390 10400 10410 10419 10427 10434 10440 10445 10449 10452 10457 10460 10459 10457 10457 10458 10458 10458 10459 10460 10461 10462 10464 10464 10465 10466 10466 10466 10466 10466 10467 10468 10468 10470 10471 10473 10474 10475 10478 10479 10478
10260 10266 10275 10283 10293 10302 10314 10327 10338 10349 10360 10370 10380 10390 10400 10409 10418 10425 10432 10437 10441 10445 10449 10452 10452 10451 10450 10452 10453 10454 10455 10455 10457 10458 10458 10457 10456 10457 10458 10458 10458 10458 10458 10458 10460 10461 10461 10462 10464 10467 10468 10469 10468 10468
10267 10274 10281 10289 10299 10311 10322 10333 10342 10353 10363 10373 10383 10394 10403 10411 10418 10424 10429 10433 10436 10439 10443 10444 10444 10444 10445 10446 10448 10450 10451 10453 10453 10454 10453 10451 10451 10451 10452 10452 10452 10453 10454 10454 10454 10454 10455 10456 10457 10458 10457 10458 10459 10459
10276 10283 10291 10299 10309 10319 10330 10340 10351 10361 10371 10382 10390 10398 10405 10411 10417 10421 10426 10429 10431 10435 10437 10437 10438 10439 10441 10442 10443 10445 10448 10449 10449 10448 10447 10446 10447 10448 10448 10448 10448 10448 10449 10450 10449 10449 10450 10451 10452 10452 10453 10453 10453 10453
10287 10295 10303 10312 10319 10328 10337 10347 10358 10368 10377 10385 10393 10399 10405 10410 10415 10419 10421 10424 10427 10429 10430 10432 10433 10435 10436 10437 10439 10441 10442 10442 10441 10441 10441 10441 10442 10442 10442 10442 10442 10443 10444 10445 10445 10445 10446 10447 10447 10448 10449 10451 10451 10452
10299 10307 10315 10323 10330 10336 10346 10355 10365 10374 10382 10389 10395 10399 10403 10408 10411 10415 10417 10420 10422 10424 10426 10428 10430 10432 10433 10433 10434 10433 10433 10433 10433 10434 10434 10435 10436 10437 10438 10439 10439 10440 10440 10442 10443 10444 10444 10445 10446 10447 10449 10449 10450 10450
10313 10320 10328 10335 10344 10352 10360 10368 10375 10381 10386 10390 10394 10398 10402 10406 10410 10412 10414 10416 10418 10421 10423 10426 10428 10429 10428 10427 10426 10425 10425 10425 10426 10426 10428 10429 10431 10432 10434 10435 10437 10438 10439 10441 10442 10444 10446 10448 10449 10449 10449 10449 10449 10448
10328 10334 10342 10348 10354 10361 10367 10373 10378 10383 10387 10391 10395 10399 10402 10405 10407 10408 10411 10414 10417 10420 10422 10424 10424 10423 10422 10420 10419 10418 10418 10418 10420 10422 10424 10425 10427 10429 10432 10434 10437 10439 10441 10442 10444 10445 10446 10447 10447 10447 10447 10446 10446 10445
10339 10346 10351 10356 10362 10367 10372 10376 10380 10384 10388 10392 10395 10398 10401 10402 10404 10407 10411 10413 10415 10417 10418 10418 10419 10419 10418 10417 10416 10415 10416 10416 10418 10420 10422 10425 10428 10431 10433 10435 10437 10439 10441 10442 10443 10443 10444 10445 10444 10444 10445 10444 10444 10443
10348 10353 10358 10363 10367 10370 10375 10380 10385 10388 10391 10392 10395 10397 10400 10403 10406 10409 10410 10411 10412 10413 10415 10416 10417 10417 10417 10417 10418 10418 10419 10419 10421 10423 10426 10428 10430 10432 10434 10436 10437 10438 10440 10441 10441 10441 10441 10440 10440 10440 10440 10438 10437 10435
10352 10358 10365 10369 10374 10378 10380 10383 10386 10389 10393 10396 10397 10399 10401 10403 10405 10406 10408 10410 10412 10413 10414 10416 10417 10419 10420 10421 10422 10423 10424 10425 10426 10427 10429 10430 10432 10433 10434 10435 10436 10436 10436 10436 10436 10436 10435 10434 10433 10432 10431 10429 10427 10424
10368 10371 10375 10378 10381 10384 10387 10390 10392 10394 10397 10399 10401 10403 10404 10405 10407 10409 10410 10411 10413 10416 10418 10420 10421 10423 10424 10425 10426 10427 10428 10429 10429 10430 10431 10432 10432 10432 10432 10433 10432 10431 10431 10430 10429 10428 10426 10425 10423 10421 10419 10417 10414 10412
10378 10381 10384 10387 10390 10392 10395 10397 10399 10401 10403 10405 10406 10407 10409 10410 10412 10413 10415 10418 10420 10421 10423 10424 10426 10427 10429 10430 10430 10430 10430 10431 10431 10431 10431 10431 10430 10429 10428 10427 10426 10425 10424 10422 10420 10418 10416 10414 10411 10408 10406 10403 10400 10396
10391 10393 10395 10397 10399 10401 10403 10405 10407 10409 10410 10412 10413 10414 10416 10417 10418 10420 10422 10423 10425 10426 10427 10428 10429 10429 10430 10430 10430 10430 10430 10430 10430 10429 10428 10426 10425 10424 10422 10420 10419 10417 10415 10412 10408 10405 10402 10399 10397 10393 10389 10385 10382 10379
10401 10403 10406 10407 10409 10411 10413 10415 10416 10417 10419 10420 10421 10422 10423 10424 10426 10427 10427 10428 10428 10429 10429 10429 10429 10429 10429 10429 10428 10427 10427 10426 10425 10424 10423 10421 10420 10418 10416 10413 10411 10408 10405 10401 10397 10394 10391 10388 10384 10380 10375 10371 10366 10361